Voltar ao catálogo

TITAN 3C TRANSTAGE DEB

LostGEO
NORAD 59979·DEBRIS·🇺🇸 United States

Lançado Sep 26, 1968 de Cape Canaveral Space Force Station

Loading…

TLE

EnvelhecendoSource: Space-Track

Época: Jul 2, 2026, 22:41 UTC

1 59979U 68081AM  26183.94552078 -.00000004  00000-0  00000-0 0  9997
2 59979   2.6887  67.0551 0045942 150.1125 209.8701  1.03315813 61240

Acompanhe TITAN 3C TRANSTAGE DEB em tempo real com AllMySat

Download on the App Store